This is the latest recevied weather packets stored in our database for station/object LU8MPR-10. If no packets are shown the sender has not sent any weather packets the latest 1 day(s).
| Time | Temp. | Humidity | Pressure | Rain* | Wind** | Luminosity | Snow |
|---|---|---|---|---|---|---|---|
| 1778115441 | 18.89° C | 29% | 1008.4 hPa | - | - | - | - |
| 1778114541 | 18.89° C | 27% | 1007.8 hPa | - | - | - | - |
| 1778112740 | 18.33° C | 28% | 1007.5 hPa | - | - | - | - |
| 1778108238 | 18.89° C | 33% | 1007.4 hPa | - | - | - | - |
| 1778104637 | 18.89° C | 38% | 1007.2 hPa | - | - | - | - |
| 1778103737 | 18.89° C | 38% | 1007.5 hPa | - | - | - | - |
| 1778099233 | 18.33° C | 41% | 1007.2 hPa | - | - | - | - |
| 1778098333 | 18.33° C | 42% | 1007.1 hPa | - | - | - | - |
| 1778097433 | 18.33° C | 43% | 1007 hPa | - | - | - | - |
| 1778092030 | 18.33° C | 42% | 1006.2 hPa | - | - | - | - |
| 1778089329 | 18.33° C | 43% | 1006.4 hPa | - | - | - | - |
| 1778087528 | 17.78° C | 44% | 1006.6 hPa | - | - | - | - |
| 1778085727 | 18.33° C | 45% | 1007.1 hPa | - | - | - | - |
| 1778083026 | 18.33° C | 45% | 1007.7 hPa | - | - | - | - |
| 1778082125 | 17.78° C | 44% | 1007.5 hPa | - | - | - | - |
| 1778081224 | 17.78° C | 40% | 1008.2 hPa | - | - | - | - |
| 1778080324 | 17.78° C | 39% | 1007.9 hPa | - | - | - | - |
| 1778079424 | 17.78° C | 39% | 1008.2 hPa | - | - | - | - |
| 1778073121 | 17.78° C | 40% | 1009.3 hPa | - | - | - | - |
| 1778072221 | 17.22° C | 40% | 1009.3 hPa | - | - | - | - |
| 1778071321 | 17.22° C | 40% | 1009.5 hPa | - | - | - | - |
| 1778070420 | 17.78° C | 38% | 1009.6 hPa | - | - | - | - |
| 1778069519 | 17.22° C | 38% | 1009.2 hPa | - | - | - | - |
| 1778068619 | 17.22° C | 37% | 1009.2 hPa | - | - | - | - |
| 1778064117 | 17.78° C | 37% | 1009.2 hPa | - | - | - | - |
* Rain since midnight (hover to see other rain measurements)
** Current wind speed in m/s (hover to see current wind gust speed)